Location: Long Geng
(2.6167°N, 114.1333°E)
Time: 01:25:15
(UTC+00:00)

Cosmos 1500 Rocket - Pass Details

Date: 14 May 2021
Orbit: 602 x 632 km, 82.5° (Epoch: 19 June)

Event Time Altitude Azimuth Distance (km) Brightness Sun altitude
Rises 12:11:00 0° 354° (N) 2,846 7.3 -25.2°
Reaches altitude 10° 12:13:13 10° 353° (N) 1,942 6.4 -25.7°
Enters shadow 12:16:28 51° 344° (NNW) 758 4.1 -26.5°
